Voltar ao catálogo

CENTISPACE-2 S9

AtivoNavegaçãoLEO
NORAD 68358·PAYLOAD·🇨🇳 China

Lançado Mar 22, 2026 de Yellow Sea Launch Area

Loading…

Próximas Passagens (próximas 24 horas)

TLE

AtualizadoSource: Space-Track

Época: Sep 13, 2026, 22:12 UTC

1 68358U 26060J   26256.92513709 -.00000134  00000-0  98707-5 0  9996
2 68358  54.9798  51.0985 0007128 261.9976  98.0192 14.25316660 25594

Acompanhe CENTISPACE-2 S9 em tempo real com AllMySat

Download on the App Store